Simultaneous Nadir Overpasses (SNOs) Predictions

Prediction of SNOs between GOES-16 and METOP-B Satellite Orbit:

Table of predicted SNOs for the next 14.0 days since TLE Epoch: 12/31/2021
Index Date Time (GOES-16) GOES-16 Lat,Lon METOP-B Lat,Lon Distance(km) Time Diff (sec)
1 01/02/2022 14:28:29 -0.03, -75.19 -0.10, -74.79 45.04 80
2 01/04/2022 02:50:08 0.02, -75.17 -0.95, -79.38 480.33 80
3 01/05/2022 02:26:49 0.02, -75.17 0.19, -74.39 89.08 80
4 01/06/2022 14:48:19 -0.01, -75.19 0.85, -78.94 427.60 80
5 01/07/2022 14:25:00 -0.01, -75.20 -0.29, -73.95 142.50 80
6 01/09/2022 02:46:39 0.01, -75.20 -0.77, -78.54 381.05 80
7 01/10/2022 02:23:20 0.01, -75.21 0.37, -73.55 189.43 80
8 01/11/2022 14:44:51 -0.01, -75.25 0.60, -78.12 325.99 80
9 01/12/2022 14:21:30 -0.02, -75.26 -0.48, -73.11 244.77 80
10 01/14/2022 02:43:11 0.02, -75.27 -0.51, -77.72 278.11 80
